When you browse on this site, cookies collect data to enhance your experience and personalize the content and advertising you see.
Visit our Privacy Policy to learn more. By continuing to use the site, you agree to this use of cookies and data.
  • In Romania
  • List of Countries
  • For 7 days
  • Water Temperature
  • Weather Map
  • Weather Widgets
  • user-avatar
    Login

    Hourly Weather Pekanbaru

    Today, 5 April, Sunday

    Time Temperature Precipitation Wind Pressure Humidity
    00:00 +25°C° 0.2 mm 0 mps 757 mmHg 95%
    01:00 +24°C° 0 mm 0 mps 757 mmHg 94%
    02:00 +24°C° 0.1 mm 0 mps 756 mmHg 95%
    03:00 +24°C° 0.1 mm 0 mps 756 mmHg 96%
    04:00 +24°C° 0.1 mm 0 mps 756 mmHg 97%
    05:00 +24°C° 0.3 mm 0 mps 756 mmHg 97%
    06:00 +24°C° 0.3 mm 0 mps 757 mmHg 97%
    07:00 +25°C° 0 mm 0 mps 757 mmHg 96%
    08:00 +26°C° 2.1 mm 0 mps 758 mmHg 93%
    09:00 +29°C° 2.1 mm 1 mps 758 mmHg 91%
    10:00 +30°C° 2.1 mm 1 mps 758 mmHg 88%
    11:00 +31°C° 2 mm 1 mps 757 mmHg 85%
    12:00 +29°C° 2 mm 0 mps 757 mmHg 82%
    13:00 +28°C° 0 mm 0 mps 756 mmHg 86%
    14:00 +28°C° 0 mm 0 mps 756 mmHg 86%
    15:00 +28°C° 0 mm 0 mps 755 mmHg 85%
    16:00 +27°C° 0 mm 0 mps 755 mmHg 85%
    17:00 +27°C° 0.4 mm 0 mps 755 mmHg 86%
    18:00 +26°C° 0.4 mm 0 mps 756 mmHg 87%
    19:00 +25°C° 0.4 mm 0 mps 756 mmHg 89%
    20:00 +25°C° 1.7 mm 0 mps 757 mmHg 91%
    21:00 +25°C° 1.7 mm 0 mps 757 mmHg 94%
    22:00 +24°C° 1.7 mm 0 mps 758 mmHg 97%
    23:00 +24°C° 0.2 mm 0 mps 757 mmHg 97%

    Tomorrow, 6 April, Monday

    Time Temperature Precipitation Wind Pressure Humidity
    00:00 +24°C° 0.2 mm 0 mps 757 mmHg 97%
    01:00 +24°C° 0.2 mm 0 mps 757 mmHg 97%
    02:00 +24°C° 0.1 mm 0 mps 757 mmHg 97%
    03:00 +24°C° 0.1 mm 0 mps 756 mmHg 97%
    04:00 +24°C° 0.1 mm 0 mps 756 mmHg 98%
    05:00 +24°C° 0 mm 0 mps 756 mmHg 97%
    06:00 +26°C° 0 mm 1 mps 757 mmHg 97%
    07:00 +26°C° 0 mm 1 mps 757 mmHg 97%
    08:00 +26°C° 0 mm 1 mps 758 mmHg 96%
    09:00 +26°C° 0 mm 1 mps 758 mmHg 94%
    10:00 +27°C° 0 mm 1 mps 758 mmHg 93%
    11:00 +29°C° 0.1 mm 1 mps 758 mmHg 83%
    12:00 +31°C° 0.1 mm 1 mps 757 mmHg 73%
    13:00 +33°C° 0.1 mm 1 mps 756 mmHg 63%
    14:00 +33°C° 0.1 mm 1 mps 755 mmHg 61%
    15:00 +34°C° 0.1 mm 1 mps 755 mmHg 58%
    16:00 +32°C° 0.1 mm 0 mps 754 mmHg 56%
    17:00 +30°C° 0 mm 0 mps 754 mmHg 65%
    18:00 +28°C° 0 mm 0 mps 755 mmHg 73%
    19:00 +26°C° 0 mm 0 mps 756 mmHg 81%
    20:00 +26°C° 0.3 mm 0 mps 756 mmHg 84%
    21:00 +26°C° 0.3 mm 0 mps 757 mmHg 87%
    22:00 +25°C° 0.3 mm 0 mps 757 mmHg 89%
    23:00 +25°C° 1.4 mm 0 mps 757 mmHg 92%

    Day after tomorrow, 7 April, Tuesday

    Time Temperature Precipitation Wind Pressure Humidity
    00:00 +24°C° 1.4 mm 0 mps 757 mmHg 94%
    01:00 +26°C° 1.4 mm 1 mps 757 mmHg 97%
    02:00 +24°C° 1.2 mm 0 mps 756 mmHg 97%
    03:00 +24°C° 1.2 mm 0 mps 756 mmHg 96%
    04:00 +24°C° 1.2 mm 0 mps 755 mmHg 96%
    05:00 +24°C° 0.5 mm 0 mps 756 mmHg 96%
    06:00 +24°C° 0.5 mm 0 mps 756 mmHg 96%
    07:00 +24°C° 0.5 mm 0 mps 757 mmHg 96%
    08:00 +25°C° 0 mm 0 mps 757 mmHg 94%
    09:00 +25°C° 0 mm 0 mps 757 mmHg 92%
    10:00 +26°C° 0 mm 0 mps 757 mmHg 89%
    11:00 +28°C° 0 mm 0 mps 757 mmHg 79%
    12:00 +31°C° 0 mm 0 mps 756 mmHg 68%
    13:00 +33°C° 0 mm 0 mps 755 mmHg 57%
    14:00 +35°C° 0 mm 1 mps 754 mmHg 57%
    15:00 +35°C° 0 mm 1 mps 754 mmHg 57%
    16:00 +34°C° 0 mm 1 mps 753 mmHg 57%
    17:00 +32°C° 0.6 mm 1 mps 754 mmHg 67%
    18:00 +30°C° 0.6 mm 1 mps 754 mmHg 77%
    19:00 +28°C° 0.6 mm 1 mps 755 mmHg 88%
    20:00 +25°C° 1.9 mm 0 mps 755 mmHg 90%
    21:00 +25°C° 1.9 mm 0 mps 756 mmHg 93%
    22:00 +25°C° 1.9 mm 0 mps 757 mmHg 96%
    23:00 +24°C° 0.9 mm 0 mps 756 mmHg 96%

    8 April, Wednesday

    Time Temperature Precipitation Wind Pressure Humidity
    00:00 +24°C° 0.9 mm 0 mps 756 mmHg 96%
    01:00 +24°C° 0.9 mm 0 mps 756 mmHg 96%
    02:00 +24°C° 0.2 mm 0 mps 756 mmHg 96%
    03:00 +24°C° 0.2 mm 0 mps 755 mmHg 97%
    04:00 +24°C° 0.2 mm 0 mps 755 mmHg 97%
    05:00 +24°C° 0 mm 0 mps 755 mmHg 96%
    06:00 +24°C° 0 mm 0 mps 756 mmHg 96%
    07:00 +24°C° 0 mm 0 mps 756 mmHg 95%
    08:00 +27°C° 0 mm 0 mps 756 mmHg 85%
    09:00 +29°C° 0 mm 0 mps 757 mmHg 74%
    10:00 +32°C° 0 mm 0 mps 757 mmHg 63%
    11:00 +33°C° 0.2 mm 0 mps 756 mmHg 62%
    12:00 +33°C° 0.2 mm 0 mps 755 mmHg 60%
    13:00 +34°C° 0.2 mm 0 mps 755 mmHg 58%
    14:00 +33°C° 0.4 mm 0 mps 754 mmHg 62%
    15:00 +34°C° 0.4 mm 1 mps 754 mmHg 67%
    16:00 +33°C° 0.4 mm 1 mps 753 mmHg 71%
    17:00 +31°C° 0.1 mm 1 mps 754 mmHg 77%
    18:00 +30°C° 0.1 mm 1 mps 754 mmHg 83%
    19:00 +28°C° 0.1 mm 1 mps 755 mmHg 90%
    20:00 +28°C° 0.2 mm 1 mps 756 mmHg 91%
    21:00 +28°C° 0.2 mm 1 mps 756 mmHg 92%
    22:00 +25°C° 0.2 mm 0 mps 756 mmHg 92%
    23:00 +25°C° 1.5 mm 0 mps 756 mmHg 94%

    9 April, Thursday

    Time Temperature Precipitation Wind Pressure Humidity
    00:00 +24°C° 1.5 mm 0 mps 756 mmHg 95%
    01:00 +24°C° 1.5 mm 0 mps 756 mmHg 97%
    02:00 +24°C° 0.4 mm 0 mps 756 mmHg 97%
    03:00 +24°C° 0.4 mm 0 mps 756 mmHg 97%
    04:00 +24°C° 0.4 mm 0 mps 755 mmHg 97%
    05:00 +24°C° 0.8 mm 0 mps 756 mmHg 97%
    06:00 +24°C° 0.8 mm 0 mps 756 mmHg 97%
    07:00 +24°C° 0.8 mm 0 mps 757 mmHg 97%
    08:00 +25°C° 0.6 mm 0 mps 757 mmHg 94%
    09:00 +26°C° 0.6 mm 0 mps 757 mmHg 91%
    10:00 +27°C° 0.6 mm 0 mps 758 mmHg 88%
    11:00 +27°C° 0.7 mm 0 mps 757 mmHg 86%
    12:00 +28°C° 0.7 mm 0 mps 756 mmHg 85%
    13:00 +28°C° 0.7 mm 0 mps 756 mmHg 83%
    14:00 +29°C° 0.8 mm 0 mps 755 mmHg 82%
    15:00 +29°C° 0.8 mm 0 mps 755 mmHg 80%
    16:00 +29°C° 0.8 mm 0 mps 754 mmHg 79%
    17:00 +28°C° 0.1 mm 0 mps 755 mmHg 82%
    18:00 +27°C° 0.1 mm 0 mps 755 mmHg 84%
    19:00 +26°C° 0.1 mm 0 mps 756 mmHg 87%
    20:00 +25°C° 0 mm 0 mps 756 mmHg 88%
    21:00 +25°C° 0 mm 0 mps 757 mmHg 88%
    22:00 +25°C° 0 mm 0 mps 757 mmHg 89%
    23:00 +25°C° 0 mm 0 mps 757 mmHg 90%

    10 April, Friday

    Time Temperature Precipitation Wind Pressure Humidity
    00:00 +26°C° 0 mm 1 mps 757 mmHg 91%
    01:00 +26°C° 0 mm 1 mps 757 mmHg 93%
    02:00 +26°C° 0 mm 1 mps 756 mmHg 93%
    03:00 +24°C° 0 mm 0 mps 756 mmHg 94%
    04:00 +23°C° 0 mm 0 mps 756 mmHg 94%
    05:00 +23°C° 0 mm 0 mps 756 mmHg 93%
    06:00 +24°C° 0 mm 0 mps 757 mmHg 92%
    07:00 +24°C° 0 mm 0 mps 757 mmHg 91%
    08:00 +26°C° 0.2 mm 0 mps 757 mmHg 84%
    09:00 +28°C° 0.2 mm 0 mps 758 mmHg 77%
    10:00 +32°C° 0.2 mm 1 mps 758 mmHg 70%
    11:00 +33°C° 0.6 mm 1 mps 757 mmHg 66%
    12:00 +34°C° 0.6 mm 1 mps 756 mmHg 62%
    13:00 +35°C° 0.6 mm 1 mps 755 mmHg 58%
    14:00 +34°C° 0.7 mm 1 mps 755 mmHg 62%
    15:00 +33°C° 0.7 mm 1 mps 755 mmHg 66%
    16:00 +34°C° 0.7 mm 2 mps 754 mmHg 70%
    17:00 +31°C° 0.1 mm 1 mps 755 mmHg 76%
    18:00 +29°C° 0.1 mm 1 mps 755 mmHg 82%
    19:00 +28°C° 0.1 mm 1 mps 756 mmHg 88%
    20:00 +25°C° 0 mm 0 mps 756 mmHg 88%
    21:00 +25°C° 0 mm 0 mps 757 mmHg 89%
    22:00 +25°C° 0 mm 0 mps 758 mmHg 89%
    23:00 +25°C° 0 mm 0 mps 757 mmHg 90%
    Show more